DLH230 EDDV-EKCH

Flight info

Callsign DLH230
Flight time 0h 41m
Altitude 32000
Route CEL7S CEL Q282 DIRBO Z990 RAMAR/N0415F240 Z990 TOSPA/N0406F230 P605 GESKA/N0401F220 Z711 MONAK
Aircraft A320/M-SDE3FGHIRWY/LB1

Departure

Time 2026-04-26 16:11
Airport Hannover Airport (EDDV)

Arrival

Time 2026-04-26 16:52
Airport Copenhagen Kastrup Airport (EKCH)
Time Latitude Longitude Altitude Speed Heading
2026-04-26 15:38 52.45839 9.69393 180 ft 0 kts 31°
2026-04-26 15:58 52.45838 9.69392 179 ft 2 kts 31°
2026-04-26 15:58 52.45818 9.69373 180 ft 0 kts 31°
2026-04-26 16:01 52.45813 9.69369 180 ft 4 kts 34°
2026-04-26 16:01 52.45798 9.69340 180 ft 4 kts 36°
2026-04-26 16:01 52.45779 9.69327 180 ft 4 kts 346°
2026-04-26 16:02 52.45762 9.69350 180 ft 4 kts 290°
2026-04-26 16:02 52.45757 9.69386 181 ft 1 kts 273°
2026-04-26 16:05 52.45757 9.69380 181 ft 4 kts 273°
2026-04-26 16:05 52.45770 9.69269 179 ft 12 kts 297°
2026-04-26 16:06 52.45806 9.69206 179 ft 5 kts 322°
2026-04-26 16:06 52.45829 9.69178 179 ft 5 kts 324°
2026-04-26 16:06 52.45857 9.69146 178 ft 5 kts 324°
2026-04-26 16:06 52.45890 9.69108 178 ft 8 kts 324°
2026-04-26 16:07 52.45947 9.69037 178 ft 13 kts 321°
2026-04-26 16:07 52.46033 9.68928 177 ft 18 kts 323°
2026-04-26 16:07 52.46134 9.68797 178 ft 19 kts 321°
2026-04-26 16:07 52.46246 9.68762 180 ft 17 kts 48°
2026-04-26 16:08 52.46293 9.68948 181 ft 18 kts 68°
2026-04-26 16:08 52.46336 9.69129 183 ft 17 kts 69°
2026-04-26 16:08 52.46379 9.69310 184 ft 17 kts 68°
2026-04-26 16:08 52.46418 9.69471 190 ft 14 kts 68°
2026-04-26 16:09 52.46456 9.69624 181 ft 16 kts 70°
2026-04-26 16:09 52.46500 9.69816 177 ft 19 kts 69°
2026-04-26 16:09 52.46574 9.69946 175 ft 15 kts
2026-04-26 16:09 52.46666 9.69929 179 ft 13 kts 330°
2026-04-26 16:10 52.46699 9.69824 177 ft 0 kts 274°
2026-04-26 16:10 52.46703 9.69713 177 ft 41 kts 272°
2026-04-26 16:10 52.46726 9.68840 177 ft 109 kts 272°
2026-04-26 16:11 52.46771 9.67285 183 ft 161 kts 273°
2026-04-26 16:11 52.46815 9.65463 824 ft 159 kts 271°
2026-04-26 16:11 52.46862 9.63652 1568 ft 160 kts 278°
2026-04-26 16:11 52.47227 9.61819 1969 ft 183 kts 302°
2026-04-26 16:12 52.48139 9.60198 2300 ft 205 kts 318°
2026-04-26 16:12 52.49217 9.58562 2831 ft 214 kts 317°
2026-04-26 16:12 52.51419 9.55112 4108 ft 229 kts 316°
2026-04-26 16:13 52.52658 9.53578 4798 ft 221 kts 340°
2026-04-26 16:13 52.54152 9.53468 5721 ft 218 kts 18°
2026-04-26 16:13 52.55463 9.54711 6572 ft 217 kts 32°
2026-04-26 16:13 52.56783 9.55798 7451 ft 209 kts 19°
2026-04-26 16:14 52.58022 9.56952 8323 ft 204 kts 41°
2026-04-26 16:14 52.58763 9.58942 8997 ft 212 kts 73°
2026-04-26 16:14 52.58654 9.63974 10022 ft 229 kts 88°
2026-04-26 16:15 52.58789 9.66568 10781 ft 232 kts 78°
2026-04-26 16:15 52.58954 9.69324 11301 ft 250 kts 88°
2026-04-26 16:15 52.58793 9.72175 11985 ft 257 kts 97°
2026-04-26 16:16 52.58446 9.78138 11551 ft 276 kts 89°
2026-04-26 16:16 52.58386 9.81390 10792 ft 294 kts 89°
2026-04-26 16:16 52.58330 9.84802 10404 ft 299 kts 89°
2026-04-26 16:16 52.58273 9.88234 10288 ft 300 kts 89°
2026-04-26 16:17 52.58215 9.91672 10304 ft 302 kts 89°
2026-04-26 16:17 52.58157 9.95146 10880 ft 305 kts 89°
2026-04-26 16:17 52.58114 9.98756 11254 ft 327 kts 86°
2026-04-26 16:17 52.58632 10.02472 11492 ft 345 kts 63°
2026-04-26 16:18 52.59926 10.05878 11826 ft 357 kts 44°
2026-04-26 16:18 52.64277 10.09444 13133 ft 357 kts
2026-04-26 16:19 52.69255 10.10508 14539 ft 365 kts
2026-04-26 16:19 52.71796 10.11038 15187 ft 369 kts
2026-04-26 16:19 52.76942 10.12137 16463 ft 377 kts
2026-04-26 16:20 52.79568 10.12711 17102 ft 381 kts
2026-04-26 16:20 52.84863 10.13901 18373 ft 388 kts
2026-04-26 16:20 52.87553 10.14524 18922 ft 391 kts
2026-04-26 16:21 52.90252 10.15154 19459 ft 394 kts
2026-04-26 16:21 52.92978 10.15792 19989 ft 397 kts
2026-04-26 16:21 52.95723 10.16437 20516 ft 400 kts
2026-04-26 16:21 52.98490 10.17092 21034 ft 403 kts
2026-04-26 16:22 53.01209 10.18377 21525 ft 413 kts 21°
2026-04-26 16:22 53.03726 10.20768 22006 ft 420 kts 27°
2026-04-26 16:22 53.06213 10.23333 22481 ft 423 kts 28°
2026-04-26 16:22 53.08720 10.25959 22965 ft 427 kts 28°
2026-04-26 16:23 53.11240 10.28620 23441 ft 430 kts 28°
2026-04-26 16:23 53.13767 10.31292 23893 ft 433 kts 28°
2026-04-26 16:23 53.16317 10.33982 24239 ft 434 kts 28°
2026-04-26 16:23 53.18877 10.36676 24411 ft 436 kts 28°
2026-04-26 16:24 53.21453 10.39384 24583 ft 437 kts 28°
2026-04-26 16:24 53.23996 10.42059 24755 ft 438 kts 28°
2026-04-26 16:24 53.26580 10.44782 24926 ft 440 kts 28°
2026-04-26 16:24 53.29203 10.47554 25122 ft 440 kts 28°
2026-04-26 16:25 53.31767 10.50274 25438 ft 442 kts 28°
2026-04-26 16:25 53.34371 10.53040 25851 ft 444 kts 28°
2026-04-26 16:25 53.36992 10.55830 26243 ft 447 kts 28°
2026-04-26 16:25 53.39623 10.58628 26613 ft 449 kts 28°
2026-04-26 16:26 53.42269 10.61440 26980 ft 452 kts 28°
2026-04-26 16:26 53.44060 10.63347 27218 ft 453 kts 28°
2026-04-26 16:26 53.47600 10.67127 27693 ft 456 kts 28°
2026-04-26 16:26 53.50286 10.69997 28017 ft 459 kts 28°
2026-04-26 16:27 53.52986 10.72884 28373 ft 461 kts 28°
2026-04-26 16:27 53.55691 10.75783 28711 ft 463 kts 28°
2026-04-26 16:27 53.58420 10.78714 29037 ft 465 kts 28°
2026-04-26 16:27 53.61147 10.81652 29484 ft 465 kts 28°
2026-04-26 16:28 53.63865 10.84588 29960 ft 464 kts 28°
2026-04-26 16:28 53.66578 10.87520 30423 ft 463 kts 28°
2026-04-26 16:28 53.69287 10.90448 30807 ft 462 kts 28°
2026-04-26 16:28 53.71996 10.93384 31192 ft 461 kts 28°
2026-04-26 16:29 53.74688 10.96308 31596 ft 461 kts 28°
2026-04-26 16:29 53.77386 10.99240 32008 ft 460 kts 28°
2026-04-26 16:29 53.80048 11.02135 31898 ft 458 kts 28°
2026-04-26 16:29 53.82722 11.05048 31154 ft 457 kts 27°
2026-04-26 16:30 53.85406 11.07971 30265 ft 460 kts 28°
2026-04-26 16:30 53.88103 11.10916 29242 ft 462 kts 28°
2026-04-26 16:30 53.90810 11.13881 28542 ft 461 kts 28°
2026-04-26 16:30 53.93501 11.16835 28308 ft 461 kts 28°
2026-04-26 16:31 53.98897 11.22758 28304 ft 461 kts 28°
2026-04-26 16:31 54.04274 11.28676 28305 ft 460 kts 28°
2026-04-26 16:32 54.08736 11.33618 28306 ft 460 kts 28°
2026-04-26 16:32 54.14974 11.40545 28302 ft 460 kts 28°
2026-04-26 16:33 54.20335 11.46509 28232 ft 458 kts 28°
2026-04-26 16:33 54.22985 11.49465 27589 ft 452 kts 28°
2026-04-26 16:33 54.25607 11.52396 26906 ft 448 kts 28°
2026-04-26 16:34 54.28202 11.55303 26263 ft 444 kts 28°
2026-04-26 16:34 54.30773 11.58186 25631 ft 440 kts 28°
2026-04-26 16:34 54.33321 11.61045 25012 ft 436 kts 28°
2026-04-26 16:34 54.35846 11.63883 24405 ft 432 kts 28°
2026-04-26 16:35 54.38432 11.66413 23809 ft 421 kts 17°
2026-04-26 16:35 54.41144 11.68206 23121 ft 416 kts 15°
2026-04-26 16:35 54.43836 11.69954 22493 ft 412 kts 15°
2026-04-26 16:35 54.46501 11.71684 21931 ft 407 kts 15°
2026-04-26 16:36 54.49143 11.73402 21359 ft 403 kts 15°
2026-04-26 16:36 54.51718 11.75074 20799 ft 399 kts 15°
2026-04-26 16:36 54.54302 11.76755 20254 ft 395 kts 15°
2026-04-26 16:36 54.56862 11.78425 19724 ft 391 kts 15°
2026-04-26 16:37 54.59397 11.80081 19200 ft 388 kts 15°
2026-04-26 16:37 54.61909 11.81724 18689 ft 384 kts 15°
2026-04-26 16:37 54.64405 11.83357 18115 ft 381 kts 16°
2026-04-26 16:37 54.66038 11.84426 17760 ft 379 kts 16°
2026-04-26 16:38 54.69316 11.86571 17073 ft 374 kts 15°
2026-04-26 16:38 54.71739 11.88159 16591 ft 369 kts 15°
2026-04-26 16:38 54.74131 11.89730 16106 ft 366 kts 15°
2026-04-26 16:38 54.76503 11.91291 15597 ft 363 kts 15°
2026-04-26 16:39 54.78857 11.92841 15115 ft 360 kts 16°
2026-04-26 16:39 54.81192 11.94378 14636 ft 358 kts 16°
2026-04-26 16:39 54.83510 11.95910 14161 ft 355 kts 16°
2026-04-26 16:39 54.85785 11.97416 13656 ft 352 kts 16°
2026-04-26 16:40 54.88072 11.98930 13132 ft 349 kts 16°
2026-04-26 16:40 54.90332 12.00428 12617 ft 346 kts 16°
2026-04-26 16:40 54.92566 12.01910 12102 ft 343 kts 17°
2026-04-26 16:40 54.94788 12.03389 11604 ft 340 kts 17°
2026-04-26 16:41 54.96985 12.04853 11076 ft 337 kts 17°
2026-04-26 16:41 54.99164 12.06305 10555 ft 334 kts 17°
2026-04-26 16:41 55.01324 12.07746 10004 ft 331 kts 17°
2026-04-26 16:41 55.03441 12.09162 9783 ft 318 kts 17°
2026-04-26 16:42 55.05456 12.10518 9639 ft 300 kts 17°
2026-04-26 16:42 55.07325 12.11781 9444 ft 278 kts 17°
2026-04-26 16:42 55.09075 12.12960 8934 ft 269 kts 17°
2026-04-26 16:42 55.10820 12.14126 8302 ft 267 kts 17°
2026-04-26 16:43 55.12544 12.15276 7653 ft 264 kts 17°
2026-04-26 16:43 55.14248 12.16417 7221 ft 254 kts 17°
2026-04-26 16:43 55.15891 12.17521 6465 ft 257 kts 18°
2026-04-26 16:43 55.17574 12.18648 5721 ft 261 kts 18°
2026-04-26 16:44 55.19276 12.19792 5236 ft 262 kts 18°
2026-04-26 16:44 55.20977 12.20942 4791 ft 262 kts 18°
2026-04-26 16:44 55.22673 12.22090 4344 ft 261 kts 18°
2026-04-26 16:44 55.24360 12.23230 4018 ft 258 kts 18°
2026-04-26 16:45 55.26023 12.24353 3989 ft 260 kts 18°
2026-04-26 16:45 55.27709 12.25493 3987 ft 260 kts 18°
2026-04-26 16:45 55.29397 12.26635 3992 ft 260 kts 18°
2026-04-26 16:45 55.31088 12.27777 3989 ft 260 kts 18°
2026-04-26 16:46 55.32765 12.28913 3993 ft 252 kts 18°
2026-04-26 16:46 55.34341 12.29988 3985 ft 234 kts 18°
2026-04-26 16:46 55.35843 12.31014 3739 ft 229 kts 18°
2026-04-26 16:46 55.37322 12.32023 3425 ft 227 kts 18°
2026-04-26 16:47 55.38796 12.33025 3124 ft 227 kts 18°
2026-04-26 16:47 55.40262 12.34022 2982 ft 225 kts 18°
2026-04-26 16:47 55.41715 12.35067 2984 ft 227 kts 26°
2026-04-26 16:47 55.43006 12.36696 2989 ft 230 kts 37°
2026-04-26 16:48 55.44197 12.38524 2992 ft 230 kts 39°
2026-04-26 16:48 55.45402 12.40387 2990 ft 230 kts 38°
2026-04-26 16:48 55.46606 12.42233 2986 ft 225 kts 38°
2026-04-26 16:48 55.47749 12.43986 2981 ft 211 kts 38°
2026-04-26 16:49 55.48822 12.45631 2970 ft 199 kts 38°
2026-04-26 16:49 55.49973 12.46941 2610 ft 200 kts 18°
2026-04-26 16:49 55.51204 12.48078 2222 ft 199 kts 34°
2026-04-26 16:49 55.52246 12.49609 1910 ft 192 kts 38°
2026-04-26 16:50 55.53239 12.51140 1635 ft 186 kts 38°
2026-04-26 16:50 55.54184 12.52596 1400 ft 173 kts 38°
2026-04-26 16:50 55.55062 12.53949 1163 ft 163 kts 37°
2026-04-26 16:50 55.55886 12.55218 941 ft 151 kts 37°
2026-04-26 16:51 55.56664 12.56418 699 ft 148 kts 37°
2026-04-26 16:51 55.57423 12.57588 573 ft 144 kts 36°
2026-04-26 16:51 55.57927 12.58352 423 ft 143 kts 36°
2026-04-26 16:51 55.58671 12.59504 210 ft 142 kts 33°
2026-04-26 16:52 55.59408 12.60646 43 ft 139 kts 34°
2026-04-26 16:52 55.59872 12.61344 19 ft 119 kts 38°
2026-04-26 16:52 55.60311 12.62023 18 ft 20 kts 38°
2026-04-26 16:52 55.60456 12.62256 20 ft 40 kts 42°
2026-04-26 16:53 55.60633 12.62622 20 ft 39 kts 62°
2026-04-26 16:53 55.60714 12.63007 16 ft 23 kts 70°
2026-04-26 16:53 55.60721 12.63042 18 ft 0 kts 70°
2026-04-26 16:54 55.60729 12.63091 16 ft 10 kts 73°
2026-04-26 16:54 55.60777 12.63345 18 ft 16 kts 69°
2026-04-26 16:54 55.60808 12.63500 21 ft 11 kts 70°
2026-04-26 16:54 55.60874 12.63643 20 ft 19 kts 38°
2026-04-26 16:55 55.60989 12.63776 22 ft 21 kts 33°
2026-04-26 16:55 55.61122 12.63927 18 ft 24 kts 33°
2026-04-26 16:55 55.61271 12.64099 16 ft 27 kts 35°
2026-04-26 16:55 55.61429 12.64283 17 ft 28 kts 32°
2026-04-26 16:56 55.61734 12.64564 19 ft 23 kts 357°
2026-04-26 16:56 55.61891 12.64508 21 ft 23 kts 349°
2026-04-26 16:56 55.62042 12.64457 20 ft 16 kts 351°
2026-04-26 16:57 55.62095 12.64441 20 ft 0 kts 349°
2026-04-26 16:58 55.62115 12.64434 26 ft 15 kts 349°
2026-04-26 16:58 55.62392 12.64445 19 ft 18 kts
2026-04-26 16:59 55.62487 12.64299 21 ft 19 kts 304°
2026-04-26 16:59 55.62624 12.63926 29 ft 13 kts 303°
2026-04-26 17:00 55.62682 12.63975 26 ft 3 kts 117°
2026-04-26 17:00 55.62669 12.64061 24 ft 2 kts 315°
2026-04-26 17:00 55.62715 12.64022 24 ft 16 kts
2026-04-26 17:01 55.62740 12.64041 24 ft 0 kts 33°